TimeCDT,TemperatureF,Dew PointF,Humidity,Sea Level PressureIn,VisibilityMPH,Wind Direction,Wind SpeedMPH,Gust SpeedMPH,PrecipitationIn,Events,Conditions,WindDirDegrees,DateUTC
12:53 AM,64.0,55.9,75,29.92,10.0,South,6.9,-,N/A,,Mostly Cloudy,180,2013-05-14 05:53:00
1:53 AM,62.1,54.0,75,29.91,10.0,South,8.1,-,N/A,,Mostly Cloudy,190,2013-05-14 06:53:00
2:53 AM,60.1,52.0,75,29.90,10.0,South,8.1,-,N/A,,Mostly Cloudy,190,2013-05-14 07:53:00
3:53 AM,57.0,51.1,81,29.91,10.0,South,8.1,-,N/A,,Mostly Cloudy,180,2013-05-14 08:53:00
4:53 AM,55.9,50.0,80,29.90,10.0,South,6.9,-,N/A,,Mostly Cloudy,180,2013-05-14 09:53:00
5:53 AM,55.9,48.0,75,29.91,10.0,South,5.8,-,N/A,,Mostly Cloudy,190,2013-05-14 10:53:00
6:53 AM,59.0,48.0,67,29.91,10.0,South,8.1,-,N/A,,Mostly Cloudy,190,2013-05-14 11:53:00
7:53 AM,64.0,48.9,58,29.92,10.0,SSW,9.2,-,N/A,,Scattered Clouds,200,2013-05-14 12:53:00
8:53 AM,70.0,50.0,49,29.92,10.0,SSW,13.8,-,N/A,,Scattered Clouds,200,2013-05-14 13:53:00
9:53 AM,75.0,51.1,43,29.92,10.0,SSW,15.0,23.0,N/A,,Scattered Clouds,210,2013-05-14 14:53:00
10:53 AM,80.1,52.0,38,29.91,10.0,SW,21.9,32.2,N/A,,Scattered Clouds,220,2013-05-14 15:53:00
11:53 AM,82.9,55.9,39,29.91,10.0,SSW,18.4,-,N/A,,Scattered Clouds,210,2013-05-14 16:53:00
12:53 PM,84.0,57.0,40,29.91,10.0,SSW,19.6,25.3,N/A,,Partly Cloudy,210,2013-05-14 17:53:00
1:53 PM,88.0,57.0,35,29.88,10.0,SSW,19.6,25.3,N/A,,Partly Cloudy,200,2013-05-14 18:53:00
2:53 PM,88.0,57.9,36,29.87,10.0,South,21.9,31.1,N/A,,Partly Cloudy,190,2013-05-14 19:53:00
3:53 PM,88.0,54.0,31,29.85,10.0,SSW,21.9,29.9,N/A,,Clear,200,2013-05-14 20:53:00
4:53 PM,87.1,51.1,29,29.83,10.0,South,20.7,27.6,N/A,,Clear,190,2013-05-14 21:53:00
5:53 PM,86.0,53.1,32,29.82,10.0,South,18.4,25.3,N/A,,Clear,190,2013-05-14 22:53:00
6:53 PM,82.9,54.0,37,29.81,10.0,South,15.0,23.0,N/A,,Clear,190,2013-05-14 23:53:00
7:53 PM,79.0,57.9,48,29.80,10.0,South,13.8,-,N/A,,Clear,180,2013-05-15 00:53:00
8:53 PM,75.0,57.9,55,29.81,10.0,South,11.5,-,N/A,,Clear,180,2013-05-15 01:53:00
9:53 PM,73.0,57.0,57,29.83,10.0,South,12.7,-,N/A,,Clear,180,2013-05-15 02:53:00
10:53 PM,69.1,57.0,65,29.84,10.0,South,9.2,-,N/A,,Clear,180,2013-05-15 03:53:00
11:53 PM,68.0,55.9,65,29.84,10.0,South,11.5,-,N/A,,Clear,180,2013-05-15 04:53:00